User: anonymous   Login
Location: Caltech
(34.1382°N, 118.1253°W)
Time: 11:19:45
(UTC-07:00)
Language:

Iridium 21 - Orbit

View from above orbital plane
View from above orbital plane
View from above satellite
View from above satellite

Ground track
Ground track

The orbit data is extracted from the following two-line orbital elements,

1 25778U 99032B   16210.46246351  .00000088  00000-0  24374-4 0  9993
2 25778  86.3971 359.2960 0002311  92.6303 267.5157 14.34213562901711
Epoch (UTC): 28 July 2016 11:05:56
Eccentricity: 0.0002311
inclination: 86.3971°
perigee height: 776 km
apogee height: 779 km
right ascension of ascending node: 359.2960°
argument of perigee: 92.6303°
revolutions per day: 14.34213562
mean anomaly at epoch: 267.5157°
orbit number at epoch: 90171

The dashed part of the orbit path shows where the satellite is in the earth's shadow,  

DLR